Regional Weather Roundup
Issued by NWS

Home | Current Version | Previous Version | Graphics & Text | Print | Product List | Glossary Off
Versions: 1 2 3 4 5 6 7 8 9 10 11 12 13 14 15 16 17 18 19 20 21 22 23 24 25 26 27 28 29 30 31 32 33 34 35 36 37 38 39 40 41 42 43 44 45 46 47 48 49 50

000
ASUS43 KLSX 282110
RWRMO

WEATHER SUMMARY FOR MISSOURI
NATIONAL WEATHER SERVICE SPRINGFIELD MO
400 PM CDT SAT MAY 28 2016

NOTE: "FAIR" INDICATES FEW OR NO CLOUDS BELOW 12,000 FEET WITH NO
       SIGNIFICANT WEATHER AND/OR OBSTRUCTIONS TO VISIBILITY.
       CURRENT SKY AND/OR WEATHER CONDITIONS ARE NOT AVAILABLE FOR
       CHILLICOTHE AND FARMINGTON.

MOZ001>031-035>038-043-044-053-054-282200-
...NORTHERN AND WESTERN MISSOURI...

CITY           SKY/WX    TMP DP  RH WIND       PRES   REMARKS
KANSAS CTY INT PTSUNNY   74  58  57 W13       29.91R
KANSAS C DTWN  MOSUNNY   77  58  51 W10G18    29.89S
LEE`S SUMMIT   PTSUNNY   75  58  55 SW17      29.91R
ST JOSEPH      MOSUNNY   76  58  53 SW13      29.88R
CHILLICOTHE      N/A     77  61  57 S16G22    29.87S
KIRKSVILLE     LGT RAIN  77  64  64 SW15G22   29.88R

$$
MOZ066>068-077>081-088>096-101>105-282200-
...SOUTHWEST MISSOURI...

CITY           SKY/WX    TMP DP  RH WIND       PRES   REMARKS
SPRINGFIELD    MOSUNNY   79  64  60 SW10      29.96S
JOPLIN         MOSUNNY   79  65  62 SW12G18   29.96R
BRANSON        MOSUNNY   84  66  54 S12       29.97F

$$
MOZ032>034-039>042-045>050-055>058-069>072-282200-
...CENTRAL MISSOURI...

CITY           SKY/WX    TMP DP  RH WIND       PRES   REMARKS
COLUMBIA       MOSUNNY   82  64  54 SW18      29.91R
JEFFERSON CITY MOSUNNY   83  63  50 SW16      29.89R
ROLLA          TSTM      77  65  66 S12G21    29.93R
SEDALIA        MOSUNNY   80  62  54 SW14G24   29.92S
WHITEMAN AFB   SUNNY     78  62  56 SW17G23   29.90R
WARRENSBURG    MOSUNNY   77  61  57 SW13G18   29.91S

$$
MOZ051-052-059>065-282200-
...EAST CENTRAL MISSOURI...

CITY           SKY/WX    TMP DP  RH WIND       PRES   REMARKS
ST LOUIS INTL  PTSUNNY   85  66  53 S14G22    29.92F
SPIRIT OF STL  PTSUNNY   84  67  56 S10G17    29.90S
ST CHARLES     MOSUNNY   85  68  56 S16       29.90S

$$
MOZ072>076-082>087-097>100-106>115-282200-
...SOUTH CENTRAL AND SOUTHEAST MISSOURI...

CITY           SKY/WX    TMP DP  RH WIND       PRES   REMARKS
CAPE GIRARDEAU PTSUNNY   82  67  60 S13       29.99S
FARMINGTON     CLOUDY    80  68  66 S12       29.99R
POPLAR BLUFF   PTSUNNY   81  68  64 S10       29.99R
WEST PLAINS    MOSUNNY   81  66  60 S12       30.00S

$$



USA.gov is the U.S. government's official web portal to all federal, state and local government web resources and services.